DK8PN Weather Reports


time (UTC)temp
C
wind
direction
speed
KPH
gust
KPH
rain 1hr
cm
rain 24hr
cm
rain mn
cm
humidity
%
barometer
mb
20260507023009 9 198 0.0 3.2 0.05 0.51 0.10 94 1008.4
20260507021517 9 211 0.0 1.6 0.08 0.51 0.10 94 1008.4
20260507020005 10 229 0.0 0.0 0.05 0.48 0.08 94 1008.2
20260507014504 10 229 0.0 0.0 0.05 0.48 0.08 94 1008.2
20260507013007 10 229 0.0 0.0 0.03 0.43 0.05 93 1008.1
20260507011504 10 229 0.0 0.0 0.00 0.43 0.03 93 1008.1
20260507010002 10 229 0.0 0.0 0.00 0.43 0.03 92 1008.2
20260507004559 10 229 0.0 0.0 0.00 0.43 0.03 92 1008.1
20260507003059 10 229 0.0 0.0 0.00 0.43 0.03 92 1008.1
20260507001606 10 229 0.0 0.0 0.00 0.43 0.03 91 1008.0
20260507000058 10 229 0.0 4.8 0.00 0.43 0.03 91 1008.0
20260506234621 10 254 0.0 0.0 0.03 0.43 0.03 91 1008.0
20260506233054 10 229 0.0 3.2 0.03 0.43 0.03 91 1008.0
20260506231555 10 254 1.6 11.3 0.03 0.43 0.03 91 1008.1
20260506230051 10 237 3.2 12.9 0.03 0.43 0.03 92 1008.1
20260506224549 10 229 0.0 9.7 0.00 0.43 0.00 93 1008.0
20260506223055 10 207 0.0 1.6 0.00 0.43 0.00 93 1007.9
20260506221545 10 259 0.0 0.0 0.05 0.43 0.00 94 1007.8
20260506220043 10 220 0.0 0.0 0.05 0.43 0.00 94 1007.7
20260506214543 10 220 0.0 0.0 0.05 0.43 0.43 94 1007.6
20260506213040 10 220 0.0 0.0 0.08 0.43 0.43 93 1007.5
20260506211539 11 220 0.0 0.0 0.05 0.38 0.38 93 1007.3
20260506210040 10 220 0.0 0.0 0.10 0.36 0.36 93 1007.3
20260506204549 10 220 0.0 4.8 0.15 0.36 0.36 93 1007.2
20260506203037 10 195 0.0 6.4 0.15 0.33 0.33 93 1007.2
20260506201538 11 199 0.0 0.0 0.15 0.33 0.33 93 1007.0
20260506200035 11 192 0.0 3.2 0.13 0.25 0.25 93 1007.0
20260506194534 11 194 0.0 1.6 0.13 0.23 0.23 93 1006.9
20260506193031 11 198 0.0 3.2 0.13 0.20 0.20 93 1006.6
20260506191528 11 195 0.0 0.0 0.10 0.15 0.15 92 1006.3
20260506190026 11 195 0.0 0.0 0.10 0.15 0.15 92 1006.1
20260506184524 12 216 0.0 0.0 0.05 0.15 0.10 92 1005.8
20260506183023 12 223 0.0 0.0 0.05 0.15 0.08 92 1005.6
20260506181527 12 223 0.0 0.0 0.03 0.13 0.05 92 1005.5
20260506180023 12 246 0.0 0.0 0.03 0.10 0.05 91 1005.5
20260506174521 12 254 0.0 0.0 0.03 0.15 0.05 91 1005.2
20260506173022 12 254 0.0 0.0 0.03 0.15 0.05 91 1005.3
20260506171534 12 254 0.0 0.0 0.03 0.15 0.05 90 1005.1
20260506170022 12 254 0.0 8.0 0.00 0.13 0.03 89 1005.1
20260506164521 12 273 0.0 6.4 0.00 0.13 0.03 88 1005.1
20260506163019 12 265 0.0 9.7 0.00 0.13 0.03 88 1005.1
20260506161522 12 250 1.6 12.9 0.00 0.13 0.03 87 1005.1
20260506160031 13 246 0.0 4.8 0.00 0.13 0.03 86 1004.9
20260506154517 12 292 0.0 0.0 0.00 0.15 0.03 86 1004.7
20260506153016 12 287 0.0 0.0 0.00 0.15 0.03 87 1004.8
20260506151527 13 269 0.0 12.9 0.00 0.15 0.03 88 1004.7
20260506150026 13 259 0.0 11.3 0.00 0.15 0.03 87 1004.6
20260506144514 13 291 3.2 37.0 0.00 0.28 0.03 84 1004.4
20260506143034 13 292 3.2 43.5 0.00 0.28 0.03 80 1004.2
20260506141513 16 267 4.8 17.7 0.00 0.28 0.03 72 1003.8
20260506140014 17 277 1.6 20.9 0.00 0.28 0.03 70 1003.6
20260506134511 17 273 3.2 16.1 0.00 0.48 0.03 68 1003.5
20260506133012 17 252 1.6 11.3 0.00 0.48 0.03 61 1003.4
20260506131515 17 246 0.0 0.0 0.00 0.48 0.03 62 1003.3
20260506130010 18 237 0.0 0.0 0.00 0.48 0.03 59 1003.2
20260506124507 17 173 0.0 0.0 0.00 0.48 0.03 60 1003.1
20260506123006 19 207 0.0 0.0 0.00 0.48 0.03 58 1003.2
20260506121505 18 208 0.0 0.0 0.00 0.48 0.03 61 1003.4
20260506114558 17 165 0.0 4.8 0.00 0.48 0.03 67 1003.5
20260506113106 17 152 0.0 1.6 0.00 0.48 0.03 69 1003.6
20260506111555 17 132 0.0 0.0 0.00 0.48 0.03 67 1003.6
20260506104613 17 275 0.0 6.4 0.00 0.48 0.03 67 1003.8
20260506103053 17 317 0.0 8.0 0.00 0.48 0.03 70 1004.0
20260506101559 17 315 4.8 17.7 0.00 0.48 0.03 67 1004.0
20260506100049 17 85 0.0 6.4 0.00 0.48 0.03 70 1004.0
20260506094519 17 152 0.0 3.2 0.00 0.48 0.03 70 1004.2
20260506093018 17 133 0.0 14.5 0.00 0.48 0.03 67 1004.2
20260506091521 16 98 0.0 6.4 0.00 0.48 0.03 71 1004.1
20260506090016 16 360 0.0 3.2 0.00 0.48 0.03 71 1004.1
20260506084519 17 281 0.0 12.9 0.00 0.48 0.03 66 1004.3
20260506083013 17 317 0.0 0.0 0.00 0.48 0.03 74 1004.3
20260506081511 16 302 0.0 11.3 0.00 0.48 0.03 73 1004.3
20260506073005 15 180 0.0 0.0 0.00 0.48 0.03 77 1004.5
20260506071500 14 225 0.0 0.0 0.00 0.48 0.03 80 1004.3
20260506070103 13 130 0.0 0.0 0.00 0.48 0.03 82 1004.2
20260506061548 12 198 0.0 0.0 0.00 0.48 0.03 94 1004.6
20260506044535 9 198 0.0 0.0 0.00 0.48 0.03 96 1004.6
20260506043034 9 198 0.0 0.0 0.00 0.48 0.03 96 1004.7
20260506041544 8 198 0.0 0.0 0.00 0.48 0.03 96 1004.8
20260506040031 8 198 0.0 0.0 0.00 0.48 0.03 96 1004.8
20260506034530 8 224 0.0 0.0 0.00 0.48 0.03 96 1004.9
20260506033031 8 224 0.0 0.0 0.00 0.48 0.03 96 1004.8
20260506031528 8 224 0.0 0.0 0.00 0.48 0.03 96 1004.8
20260506030031 9 224 0.0 0.0 0.00 0.48 0.03 96 1004.7
20260506024524 9 221 0.0 0.0 0.00 0.48 0.03 96 1004.8